Weather History for CYVR - October, 2011

Change the Weather History Date:

Wednesday, October 12, 2011

  Actual Average Record
Temperature  
Mean Temperature 52 °F -  
Max Temperature 57 °F 54 °F 62 °F (2004)
Min Temperature 46 °F 45 °F 37 °F (2002)
Degree Days  
Heating Degree Days 14    
Growing Degree Days 2 (Base 50)    
Moisture  
Dew Point 47 °F    
Average Humidity 80    
Maximum Humidity 96    
Minimum Humidity 65    
Precipitation  
Precipitation 0.00 in - - ()
Sea Level Pressure  
Sea Level Pressure 30.16 in    
Wind  
Wind Speed 7 mph ()    
Max Wind Speed 12 mph    
Max Gust Speed -    
Visibility 16.5 miles    
Events      
Averages and records for this station are not official NWS values.
T = Trace of Precipitation, MM = Missing Value Source: Averaged Metar Reports

Daily Weather History Graph

Daily Weather History Graph

Search for Another Location

Airport or City:

Trip Planner

Search our weather history database for the weather conditions in past years. The results will help you decide how hot, cold, wet, or windy it might be!

Date:

Astronomy

Oct. 12, 2011 Rise Set
Actual Time 7:28 AM PDT 6:28 PM PDT
Civil Twilight 6:56 AM PDT 7:00 PM PDT
Nautical Twilight 6:19 AM PDT 7:37 PM PDT
Astronomical Twilight 5:42 AM PDT 8:14 PM PDT
Moon 6:22 PM PDT (10/12) 8:18 AM PDT (10/12)
Length of Visible Light 12h 03m
Length of Day
11h 00m
Full, 100% of the Moon is Illuminated
Oct 12
Full
Oct 19
Last Quarter
Oct 26
New
Nov 2
First Quarter
Nov 10
Full

Hourly Weather History & Observations

Time (PDT) Temp. Windchill Dew Point Humidity Pressure Visibility Wind Dir Wind Speed Gust Speed Precip Events Conditions
12:00 AM 53.6 °F - 48.2 °F 82% 30.01 in 15.0 mi ESE 9.2 mph - N/A   Mostly Cloudy
1:00 AM 53.6 °F - 48.2 °F 82% 30.03 in 15.0 mi South 10.4 mph - N/A   Overcast
2:00 AM 53.6 °F - 46.4 °F 77% 30.06 in 15.0 mi SSE 6.9 mph - N/A   Overcast
3:00 AM 53.6 °F - 48.2 °F 82% 30.07 in 15.0 mi SE 6.9 mph - N/A   Mostly Cloudy
4:00 AM 51.8 °F - 48.2 °F 88% 30.08 in 15.0 mi ESE 3.5 mph - N/A   Overcast
5:00 AM 53 °F - 48 °F 76% 30.09 in 15 mi South 11.5 mph - -   Partly Cloudy
5:00 AM 53.6 °F - 48.2 °F 82% 30.09 in 15.0 mi South 11.5 mph - N/A   Overcast
6:00 AM 53.6 °F - 48.2 °F 82% 30.11 in 15.0 mi South 10.4 mph - N/A   Mostly Cloudy
7:00 AM 51.8 °F - 46.4 °F 82% 30.12 in 15.0 mi SSE 9.2 mph - N/A   Mostly Cloudy
8:00 AM 51.8 °F - 46.4 °F 82% 30.14 in 15.0 mi ESE 5.8 mph - N/A   Mostly Cloudy
9:00 AM 51.8 °F - 48.2 °F 88% 30.17 in 15.0 mi East 4.6 mph - N/A   Mostly Cloudy
10:00 AM 53.6 °F - 48.2 °F 82% 30.18 in 15.0 mi SE 4.6 mph - N/A   Mostly Cloudy
11:00 AM 55 °F - 48 °F 71% 30.19 in 15 mi South 5.8 mph - -   Scattered Clouds
11:00 AM 55.4 °F - 48.2 °F 77% 30.19 in 15.0 mi South 5.8 mph - N/A   Mostly Cloudy
12:00 PM 55.4 °F - 46.4 °F 72% 30.20 in 15.0 mi South 6.9 mph - N/A   Mostly Cloudy
1:00 PM 55.4 °F - 48.2 °F 77% 30.19 in 15.0 mi SSW 11.5 mph - N/A   Mostly Cloudy
2:00 PM 55.4 °F - 46.4 °F 72% 30.19 in 15.0 mi SSW 10.4 mph - N/A   Mostly Cloudy
3:00 PM 55.4 °F - 46.4 °F 72% 30.19 in 15.0 mi South 8.1 mph - N/A   Mostly Cloudy
4:00 PM 55.4 °F - 46.4 °F 72% 30.21 in 20.0 mi SSW 8.1 mph - N/A   Mostly Cloudy
5:00 PM 55 °F - 47 °F 65% 30.20 in 19 mi South 2.3 mph - -   Scattered Clouds
5:00 PM 55.4 °F - 46.4 °F 72% 30.20 in 20.0 mi Calm Calm - N/A   Mostly Cloudy
6:00 PM 53.6 °F - 48.2 °F 82% 30.21 in 25.0 mi SSW 4.6 mph - N/A   Scattered Clouds
7:00 PM 51.8 °F - 44.6 °F 76% 30.21 in 25.0 mi South 4.6 mph - N/A   Scattered Clouds
8:00 PM 50.0 °F - 44.6 °F 82% 30.22 in 20.0 mi East 4.6 mph - N/A   Partly Cloudy
9:00 PM 46.4 °F 42.4 °F 44.6 °F 93% 30.22 in 20.0 mi ESE 8.1 mph - N/A   Scattered Clouds
10:00 PM 46.4 °F 43.5 °F 44.6 °F 93% 30.24 in 20.0 mi East 5.8 mph - N/A   Scattered Clouds
11:00 PM 46 °F - 45 °F 96% 30.25 in 19 mi East 5.8 mph - -   Mostly Cloudy
11:00 PM 46.4 °F 42.9 °F 44.6 °F 93% 30.25 in 20.0 mi East 6.9 mph - N/A   Mostly Cloudy